Location: Carrières
(48.9495°N, 2.0407°E)
Time: 20:27:22
(UTC+00:00)

Courier 1B - Visible Passes

Search period start: 12 April 2024 00:00
Search period end: 22 April 2024 00:00
Orbit: 962 x 1209 km, 28.3° (Epoch: 11 April)

Date Brightness Start Highest point End Pass type
(mag) Time Alt. Az. Time Alt. Az. Time Alt. Az.
16 Apr 9.6 04:25:11 10° S 04:26:48 11° S 04:28:23 10° SSE visible
17 Apr 9.6 03:32:41 10° S 03:33:20 10° S 03:33:58 10° SSE visible
19 Apr 9.5 03:36:25 10° SSW 03:38:58 12° S 03:41:28 10° SSE visible
20 Apr 9.5 02:45:10 12° S 02:45:28 12° S 02:47:50 10° SSE visible
21 Apr 9.5 03:41:46 10° SSW 03:44:36 13° S 03:47:22 10° SSE visible
